Falls City, NE

11:44 AM CST on February 25, 2018 (GMT -0600)
Brenner

Weather History for KFNB - December, 2013

Change the Weather History Date:

Tuesday, December 3, 2013

  Actual Average Record
Temperature  
Mean Temperature 46 °F -  
Max Temperature 55 °F 44 °F 68 °F (1959)
Min Temperature 36 °F 22 °F 1 °F (1985)
Degree Days  
Heating Degree Days 20    
Moisture  
Dew Point 36 °F    
Average Humidity 81    
Maximum Humidity 97    
Minimum Humidity 51    
Precipitation  
Precipitation 0.00 in - - ()
Sea Level Pressure  
Sea Level Pressure 29.57 in    
Wind  
Wind Speed 5 mph (North)    
Max Wind Speed 10 mph    
Max Gust Speed -    
Visibility 6 miles    
Events      
Averages and records for this station are not official NWS values.
T = Trace of Precipitation, MM = Missing Value Source: NWS Daily Summary

Daily Weather History Graph

Daily Weather History Graph

Search for Another Location

Airport or City:

Trip Planner

Search our weather history database for the weather conditions in past years. The results will help you decide how hot, cold, wet, or windy it might be!

Date:

Astronomy

Dec. 03, 2013 Rise Set
Actual Time 7:27 AM CST 4:57 PM CST
Civil Twilight 6:57 AM CST 5:27 PM CST
Nautical Twilight 6:23 AM CST 6:00 PM CST
Astronomical Twilight 5:50 AM CST 6:33 PM CST
Moon 7:57 AM CST (12/3) 6:01 PM CST (12/3)
Length of Visible Light 10h 29m
Length of Day
9h 29m
New Moon, 1% of the Moon is Illuminated
Dec 3
New Moon
Dec 9
First Quarter
Dec 17
Full
Dec 25
Last Quarter
Jan 1
New

Hourly Weather History & Observations

Time (CST) Temp. Windchill Dew Point Humidity Pressure Visibility Wind Dir Wind Speed Gust Speed Precip Events Conditions
12:53 AM 37.0 °F - 36.0 °F 96% 29.54 in 4.0 mi Calm Calm - N/A   Clear
1:53 AM 36.0 °F 33.3 °F 35.1 °F 97% 29.54 in 4.0 mi SE 3.5 mph - N/A   Clear
2:53 AM 36.0 °F 33.3 °F 35.1 °F 97% 29.53 in 5.0 mi SE 3.5 mph - N/A   Clear
3:53 AM 37.9 °F 33.5 °F 36.0 °F 93% 29.52 in 5.0 mi SE 5.8 mph - N/A   Clear
4:53 AM 37.9 °F 33.5 °F 36.0 °F 93% 29.52 in 5.0 mi SSE 5.8 mph - N/A   Clear
5:53 AM 39.0 °F 36.8 °F 36.0 °F 89% 29.51 in 5.0 mi South 3.5 mph - N/A   Clear
6:53 AM 41.0 °F 39.0 °F 37.0 °F 86% 29.51 in 8.0 mi South 3.5 mph - N/A   Mostly Cloudy
7:53 AM 39.9 °F 35.8 °F 37.0 °F 89% 29.52 in 7.0 mi SSE 5.8 mph - N/A   Clear
8:53 AM 42.1 °F 37.7 °F 37.9 °F 85% 29.53 in 7.0 mi South 6.9 mph - N/A   Clear
9:53 AM 45.0 °F 40.6 °F 39.0 °F 80% 29.55 in 8.0 mi SW 8.1 mph - N/A   Clear
10:53 AM 51.1 °F - 37.9 °F 61% 29.57 in 10.0 mi West 8.1 mph - N/A   Clear
11:53 AM 54.0 °F - 37.0 °F 53% 29.55 in 10.0 mi WSW 4.6 mph - N/A   Clear
12:53 PM 55.0 °F - 37.0 °F 51% 29.52 in 10.0 mi NW 4.6 mph - N/A   Clear
1:53 PM 54.0 °F - 37.0 °F 53% 29.52 in 10.0 mi NNW 5.8 mph - N/A   Clear
2:53 PM 52.0 °F - 37.0 °F 57% 29.54 in 10.0 mi NNW 9.2 mph - N/A   Clear
3:53 PM 50.0 °F - 36.0 °F 59% 29.57 in 10.0 mi NNW 10.4 mph - N/A   Clear
4:53 PM 45.0 °F 41.2 °F 37.0 °F 74% 29.60 in 8.0 mi NNW 6.9 mph - N/A   Clear
5:53 PM 41.0 °F 35.2 °F 35.1 °F 79% 29.60 in 7.0 mi North 9.2 mph - N/A   Clear
6:53 PM 37.9 °F 31.5 °F 33.1 °F 83% 29.62 in 6.0 mi North 9.2 mph - N/A   Haze
7:53 PM 36.0 °F 31.1 °F 33.1 °F 89% 29.63 in 5.0 mi North 5.8 mph - N/A   Clear
8:18 PM 36.0 °F 29.6 °F 33.1 °F 89% 29.62 in 5.0 mi North 8.1 mph - N/A   Scattered Clouds
8:27 PM 37.0 °F 30.4 °F 34.0 °F 89% 29.62 in 5.0 mi North 9.2 mph - N/A   Mostly Cloudy
8:53 PM 37.9 °F 31.5 °F 34.0 °F 86% 29.62 in 6.0 mi NNE 9.2 mph - N/A   Overcast
9:53 PM 37.0 °F 31.6 °F 34.0 °F 89% 29.65 in 5.0 mi NNE 6.9 mph - N/A   Overcast
10:53 PM 37.0 °F 30.4 °F 35.1 °F 93% 29.64 in 4.0 mi NNE 9.2 mph - N/A   Overcast
11:10 PM 37.0 °F 30.4 °F 35.1 °F 93% 29.62 in 4.0 mi NNE 9.2 mph - N/A   Overcast
11:53 PM 37.0 °F 29.8 °F 35.1 °F 93% 29.63 in 3.0 mi North 10.4 mph - N/A   Overcast